Location: *
(48.8489°N, 2.3218°E)
Time: 02:29:57
(UTC+00:00)

Cosmos 1666 - Pass Details

Date: 23 August 2019
Orbit: 497 x 523 km, 82.5° (Epoch: 15 September)

Event Time Altitude Azimuth Distance (km) Brightness Sun altitude
Exits shadow 21:49:47 26° 249° (WSW) 1,050 4.3 -24.0°
Maximum altitude 21:51:04 33° 287° (WNW) 892 4.2 -24.1°
Drops below altitude 10° 21:54:34 10° 352° (N) 1,750 6.2 -24.4°
Sets 21:56:51 0° 2° (N) 2,637 7.2 -24.6°
